Weather History for Corpus Christi, TX

Change the Weather History Date:

Friday, December 2, 2011

  Actual Average Record
Temperature  
Mean Temperature 68 °F 61 °F  
Max Temperature 74 °F 71 °F 87 °F (1964)
Min Temperature 61 °F 51 °F 36 °F (1985)
Degree Days  
Heating Degree Days 0 6  
Month to date heating degree days 0 12  
Since 1 July heating degree days 94 113  
Cooling Degree Days 3 2  
Month to date cooling degree days 5 4  
Year to date cooling degree days 4082 3479  
Growing Degree Days 18 (Base 50)    
Moisture  
Dew Point 64 °F    
Average Humidity 83    
Maximum Humidity 93    
Minimum Humidity 73    
Precipitation  
Precipitation 0.19 in 0.05 in 2.10 in (1994)
Month to date precipitation 0.19 0.10  
Year to date precipitation 11.07 30.03  
Snow  
Snow 0.00 in - - ()
Month to date snowfall 0.0  
Since 1 July snowfall 0.0  
Snow Depth 0.00 in    
Sea Level Pressure  
Sea Level Pressure 30.15 in    
Wind  
Wind Speed 11 mph (SE)    
Max Wind Speed 26 mph    
Max Gust Speed 30 mph    
Visibility 8 miles    
Events Rain    
T = Trace of Precipitation, MM = Missing Value Source: NWS Daily Summary

Daily Weather History Graph

Daily Weather History Graph

Search for Another Location

Airport:

Trip Planner

Search our weather history database for the weather conditions in past years. The results will help you decide how hot, cold, wet, or windy it might be!

Date:

Astronomy

Dec. 02, 2011 Rise Set
Actual Time 7:04 AM CST 5:34 PM CST
Civil Twilight 6:38 AM CST 5:59 PM CST
Nautical Twilight 6:09 AM CST 6:28 PM CST
Astronomical Twilight 5:41 AM CST 6:57 PM CST
Moon 12:43 PM CST (12/2) 12:10 AM CST (12/2)
Length of Visible Light 11h 21m
Length of Day
10h 30m
First Quarter, 53% of the Moon is Illuminated
Dec 2
First Quarter
Dec 10
Full
Dec 17
Last Quarter
Dec 24
New
Jan 1
First Quarter

Hourly Weather History & Observations

Time (CST) Temp. Dew Point Humidity Pressure Visibility Wind Dir Wind Speed Gust Speed Precip Events Conditions
12:51 AM 64.0 °F 60.1 °F 87% 30.14 in 10.0 mi East 5.8 mph - N/A   Mostly Cloudy
1:51 AM 66.9 °F 61.0 °F 81% 30.13 in 10.0 mi SSE 5.8 mph - N/A   Partly Cloudy
2:51 AM 64.9 °F 60.1 °F 84% 30.13 in 10.0 mi East 4.6 mph - N/A   Partly Cloudy
3:51 AM 62.1 °F 57.9 °F 86% 30.13 in 10.0 mi ESE 5.8 mph - N/A   Mostly Cloudy
4:51 AM 66.0 °F 62.1 °F 87% 30.14 in 10.0 mi East 8.1 mph - N/A   Scattered Clouds
5:51 AM 66.9 °F 64.0 °F 90% 30.14 in 10.0 mi East 6.9 mph - N/A   Mostly Cloudy
6:51 AM 68.0 °F 63.0 °F 84% 30.15 in 10.0 mi East 8.1 mph - N/A   Mostly Cloudy
7:51 AM 69.1 °F 64.9 °F 87% 30.17 in 10.0 mi ESE 9.2 mph - N/A   Mostly Cloudy
8:51 AM 69.1 °F 64.9 °F 87% 30.19 in 7.0 mi ESE 12.7 mph - 0.00 in Rain Light Rain
9:26 AM 68.0 °F 64.4 °F 88% 30.22 in 4.0 mi ESE 8.1 mph - 0.03 in Rain Rain
9:31 AM 68.0 °F 66.2 °F 94% 30.22 in 2.5 mi ESE 11.5 mph - 0.05 in Rain Rain
9:51 AM 68.0 °F 66.0 °F 93% 30.22 in 2.0 mi SSE 17.3 mph 25.3 mph 0.08 in Rain Rain
9:56 AM 68.0 °F 64.4 °F 88% 30.22 in 3.0 mi SSE 16.1 mph - 0.00 in Rain Light Rain
10:02 AM 69.8 °F 66.2 °F 88% 30.22 in 2.5 mi SSE 19.6 mph 26.5 mph 0.00 in Rain Light Rain
10:31 AM 68.0 °F 66.2 °F 94% 30.21 in 2.0 mi South 13.8 mph - 0.02 in Rain Rain
10:45 AM 69.8 °F 66.2 °F 88% 30.21 in 2.5 mi SSE 13.8 mph - 0.06 in Rain Light Rain
10:51 AM 69.1 °F 66.0 °F 90% 30.21 in 2.0 mi SSE 12.7 mph - 0.07 in Rain Heavy Rain
11:05 AM 69.8 °F 66.2 °F 88% 30.21 in 79.0 mi SE 9.2 mph - 0.03 in Rain Light Rain
11:51 AM 71.1 °F 66.0 °F 84% 30.19 in 10.0 mi SE 15.0 mph - 0.03 in   Mostly Cloudy
12:51 PM 69.1 °F 64.0 °F 84% 30.16 in 10.0 mi South 11.5 mph - 0.01 in   Mostly Cloudy
1:51 PM 71.1 °F 66.9 °F 87% 30.13 in 10.0 mi ESE 8.1 mph - N/A   Mostly Cloudy
2:51 PM 73.9 °F 64.9 °F 73% 30.11 in 10.0 mi SE 15.0 mph - N/A   Mostly Cloudy
3:51 PM 73.0 °F 64.0 °F 73% 30.11 in 10.0 mi SE 15.0 mph - N/A   Mostly Cloudy
4:51 PM 72.0 °F 63.0 °F 73% 30.09 in 10.0 mi SE 15.0 mph - N/A   Scattered Clouds
5:51 PM 71.1 °F 63.0 °F 75% 30.10 in 10.0 mi SE 15.0 mph - N/A   Scattered Clouds
6:51 PM 70.0 °F 63.0 °F 78% 30.12 in 10.0 mi SE 11.5 mph - N/A   Scattered Clouds
7:51 PM 69.1 °F 64.0 °F 84% 30.12 in 10.0 mi SE 11.5 mph - N/A   Scattered Clouds
8:51 PM 69.1 °F 64.0 °F 84% 30.12 in 10.0 mi SE 10.4 mph - N/A   Partly Cloudy
9:51 PM 68.0 °F 64.0 °F 87% 30.12 in 10.0 mi SE 10.4 mph - N/A   Partly Cloudy
10:51 PM 70.0 °F 63.0 °F 78% 30.08 in 10.0 mi SE 16.1 mph - N/A   Mostly Cloudy
11:51 PM 70.0 °F 64.0 °F 81% 30.09 in 10.0 mi SE 12.7 mph - N/A   Overcast